User: anonymous   Login
Location: Unspecified
(0.0000°N, 0.0000°E)
Time: 00:15:08
(UTC+00:00)
Language:

Oscar 18 - Orbit

View from above orbital plane
View from above orbital plane
View from above satellite
View from above satellite

Ground track
Ground track

The orbit data is extracted from the following two-line orbital elements,

1 20441U 90005F   17328.55537042 +.00000030 +00000-0 +27196-4 0  9999
2 20441 098.6067 264.8896 0012337 047.1140 074.8308 14.32749122454227
Epoch (UTC): 24 November 2017 13:19:44
Eccentricity: 0.0012337
inclination: 98.6067°
perigee height: 774 km
apogee height: 791 km
right ascension of ascending node: 264.8896°
argument of perigee: 47.1140°
revolutions per day: 14.32749122
mean anomaly at epoch: 74.8308°
orbit number at epoch: 45422

The dashed part of the orbit path shows where the satellite is in the earth's shadow,  

DLR